#timestamp,LO_Frequency,Hit,StdDev 
1503140415.0,286046998.6,N,0.9
1503140415.9,286046998.6,N,0.8
1503140435.8,286047000.7,N,1.0
1503140455.6,286046998.1,N,1.0
1503140475.4,286046998.9,N,0.9
1503140495.3,286046999.0,N,0.9
1503140515.1,286047001.1,N,1.0
1503140535.9,286046999.0,N,1.0
1503140555.7,286046999.3,N,0.9
1503140575.5,286047001.0,N,1.0
1503140595.4,286047000.7,N,1.0
1503140615.2,286046998.7,N,1.0
1503140635.0,286046998.3,N,1.0
1503140635.9,286046998.3,N,1.0
1503140655.8,286046998.8,N,1.0
1503140675.6,286047001.2,N,1.1
1503140695.4,286047000.6,N,1.1
1503140715.3,286047000.8,N,1.1
1503140735.1,286046998.2,N,1.1
1503140755.9,286047000.1,N,1.1
1503140775.7,286047000.2,N,1.1
1503140795.5,286047000.1,N,1.1
1503140815.4,286046999.8,N,1.0
1503140835.2,286047002.8,N,1.2
1503140855.0,286047002.3,N,1.3
1503140855.9,286047002.3,N,1.3
1503140875.8,286047000.1,N,1.3
1503140895.6,286047002.1,N,1.4
1503140915.5,286047002.0,N,1.4
1503140935.3,286047002.8,N,1.5
1503140955.1,286047002.6,N,1.5
1503140975.9,286047001.4,N,1.5
1503140995.7,286047001.7,N,1.5
1503141015.6,286047001.4,N,1.4
1503141035.4,286047004.2,N,1.5
1503141055.2,286047003.8,N,1.6
1503141075.1,286047004.4,N,1.7
1503141076.0,286047004.4,N,1.8
1503141095.8,286047003.8,N,1.8
1503141115.6,286047004.3,N,1.9
1503141135.5,286047003.9,N,1.9
1503141155.3,286047003.7,N,1.9
1503141175.2,286047003.5,N,1.8
1503141195.9,286047003.7,N,1.7
1503141215.7,286047003.1,N,1.6
1503141235.6,286047005.6,Y,0.0
1503141255.4,286047002.5,P,0.2
1503141275.2,286047002.4,P,0.1
1503141295.1,286047002.6,P,0.2
1503141296.0,286047002.6,Y,0.0
1503141315.8,286046998.5,P,2.0
1503141335.7,286046998.7,N,1.8
1503141355.5,286046998.6,N,1.7
1503141375.3,286047000.3,N,1.5
1503141395.2,286046999.8,N,1.4
1503141415.0,286046999.7,N,1.3
1503141415.9,286046999.7,N,1.2
1503141435.8,286047002.7,N,1.5
1503141455.6,286047002.6,N,1.6
1503141475.4,286046999.9,N,1.5
1503141495.3,286047000.1,N,1.5
1503141515.1,286047000.2,N,1.4
1503141535.8,286047000.6,N,1.3
1503141555.7,286047000.5,N,1.3
1503141575.5,286046998.2,N,1.4
1503141595.4,286047001.0,N,1.3
1503141615.2,286047000.9,N,1.3
1503141635.0,286047000.2,N,1.3
1503141635.9,286047000.2,N,1.2
1503141655.8,286046999.8,N,1.2
1503141675.6,286047000.2,N,1.2
1503141695.4,286047002.7,N,1.3
1503141715.3,286047002.3,N,1.3
1503141735.1,286046999.8,N,1.3
1503141755.9,286047002.1,N,1.3
1503141775.7,286047002.3,N,1.3
1503141795.5,286047002.2,N,1.3
1503141815.4,286047001.7,N,1.3
1503141835.2,286047002.6,N,1.4
1503141855.1,286047001.9,N,1.3
1503141856.0,286047001.9,N,1.3
1503141875.8,286047004.4,Y,0.0
1503141895.6,286047002.7,P,1.0
1503141915.5,286047002.7,N,0.9
1503141935.3,286047002.8,P,0.8
1503141955.1,286047002.8,Y,0.0
1503141975.9,286046998.5,P,1.9
1503141995.7,286046998.1,N,1.9
1503142015.6,286046998.1,N,1.7
1503142035.4,286046998.7,N,1.6
1503142055.2,286047000.8,N,1.6
1503142075.1,286046998.1,N,1.5
1503142076.0,286046998.1,N,1.5
1503142095.8,286047000.8,N,1.5
1503142115.6,286047000.7,N,1.5
1503142135.5,286046998.2,N,1.4
1503142155.3,286047001.2,N,1.5
1503142175.2,286046998.1,N,1.5
1503142195.9,286047000.7,N,1.5
1503142215.7,286047001.0,N,1.5
1503142235.6,286047001.2,N,1.5
1503142255.4,286047001.2,N,1.5
1503142275.2,286046999.0,N,1.4
1503142295.1,286046998.6,N,1.4
1503142296.0,286046998.6,N,1.4
1503142315.8,286047001.2,N,1.4
1503142335.7,286047001.1,N,1.4
1503142355.5,286047000.6,N,1.4
1503142375.3,286047000.5,N,1.4
1503142395.2,286047001.0,N,1.4
1503142415.0,286047001.0,N,1.4
1503142415.9,286047001.0,N,1.3
1503142435.8,286047001.1,N,1.3
1503142455.6,286047000.0,N,1.3
1503142475.4,286047000.9,N,1.3
1503142495.3,286047000.9,N,1.2
1503142515.1,286046999.9,N,1.2
1503142535.8,286047000.3,N,1.2
1503142555.7,286047001.1,N,1.1
1503142575.5,286047001.0,N,1.1
1503142595.4,286047001.0,N,1.1
1503142615.2,286046998.1,N,1.1
1503142635.0,286047001.0,N,1.0
1503142635.9,286047001.0,N,1.0
1503142655.8,286047000.2,N,1.0
1503142675.6,286047000.5,N,0.9
1503142695.4,286047000.5,N,0.9
1503142715.3,286047000.6,N,0.8
1503142735.1,286047000.4,N,0.8
1503142755.9,286047000.9,N,0.8
1503142775.7,286047000.9,N,0.8
1503142795.5,286047000.7,N,0.8
1503142815.4,286047000.5,N,0.8
1503142835.2,286047000.9,N,0.7
1503142855.0,286047000.6,N,0.6
1503142855.9,286047000.6,N,0.6
1503142875.8,286047000.0,N,0.6
1503142895.6,286047000.1,N,0.6
1503142915.5,286047002.1,Y,0.0
1503142935.3,286046999.9,P,0.3
1503142955.1,286047000.3,N,0.3
1503142975.9,286047000.2,N,0.2
1503142995.7,286047002.8,Y,0.0
1503143015.5,286047000.3,P,0.0
1503143035.4,286047000.4,P,0.1
1503143055.2,286047001.0,P,0.3
1503143075.1,286047000.3,N,0.3
1503143076.0,286047000.3,N,0.3
1503143095.8,286047002.8,Y,0.0
1503143115.6,286047000.1,P,0.2
1503143135.5,286047001.1,P,0.4
1503143155.3,286046998.4,P,1.0
1503143175.1,286046998.2,N,1.1
1503143195.9,286047000.5,N,1.1
1503143215.7,286046998.6,N,1.1
1503143235.6,286046998.1,N,1.1
1503143255.4,286046998.2,N,1.1
1503143275.2,286047001.2,N,1.2
1503143295.1,286046998.2,N,1.2
1503143296.0,286046998.2,N,1.2
1503143315.8,286047000.9,N,1.2
1503143335.6,286046999.7,N,1.2
1503143355.5,286047000.3,N,1.2
1503143375.3,286047000.0,N,1.2
1503143395.2,286047000.9,N,1.2
1503143415.9,286046998.1,N,1.2
1503143435.7,286047001.1,N,1.2
1503143455.6,286047000.9,N,1.2
1503143475.4,286046998.2,N,1.2
1503143495.2,286047001.0,N,1.2
1503143515.1,286047000.8,N,1.2
1503143516.0,286047000.8,N,1.2
1503143535.8,286047000.8,N,1.2
1503143555.6,286047000.0,N,1.2
1503143575.5,286047000.7,N,1.2
1503143595.3,286047000.8,N,1.2
1503143615.2,286047000.5,N,1.2
1503143635.9,286046999.8,N,1.1
1503143655.7,286047000.5,N,1.1
1503143675.6,286047000.5,N,1.1
1503143695.4,286047001.0,N,1.1
1503143715.2,286047000.7,N,1.1
1503143735.1,286047001.2,N,1.1
1503143736.0,286047001.2,N,1.1
1503143755.8,286047000.1,N,1.1
1503143775.7,286047000.9,N,1.0
1503143795.5,286047000.3,N,0.9
1503143815.3,286047000.9,N,0.9
1503143835.2,286047000.9,N,0.8
1503143855.0,286046999.9,N,0.7
1503143855.9,286046999.9,N,0.7
1503143875.7,286047000.0,N,0.7
1503143895.6,286047002.4,Y,0.0
1503143915.4,286047000.2,P,0.1
1503143935.3,286047000.2,N,0.1
1503143955.1,286047000.7,P,0.2
1503143975.8,286047001.2,Y,0.0
1503143995.7,286046998.2,P,1.1
